Home   Weather   Salford   Past weeks
Flag for United Kingdom

Past Weather in Salford, England, United Kingdom — Yesterday and Last 2 Weeks

Now
54 °F

Mostly cloudy.


Feels Like: 51 °F
Forecast: 53 / 47 °F
Wind: 9 mph from Southwest

Location: Manchester Airport

Current Time: Dec 6, 2019 at 10:56:34 am

Latest Report: Dec 6, 2019 at 10:20 am


Visibility: N/A

Pressure: 29.50 "Hg

Humidity: 88%

Dew Point: 50 °F

Location of SalfordLocation

Past Weather in Salford — Graph

°F

Salford Temperature Yesterday

Maximum temperature yesterday: 54 °F (at 8:20 pm)
Minimum temperature yesterday: 39 °F (at 2:50 am)
Average temperature yesterday: 46 °F

High & Low Weather Summary for the Past Weeks

 TemperatureHumidityPressure
High55 °F (Nov 26, 2:50 pm)100% (Nov 24, 12:20 am)30.48 "Hg (Nov 24, 12:20 am)
Low23 °F (Dec 2, 3:20 am)66% (Nov 29, 1:20 pm)29.03 "Hg (Nov 27, 5:20 am)
Average43 °F89%29.76 "Hg
* Reported Nov 21 9:20 am — Dec 6 9:20 am, Salford. Weather by CustomWeather, © 2019

Note: Actual official high and low records may vary slightly from our data, if they occured in-between our weather recording intervals... More about our weather records

Salford Weather History for the Previous 24 Hours

Scroll right to see more
 ConditionsComfort  
Time TempWeatherWind HumidityBarometerVisibility
9:20 am
Fri, Dec 6
52 °FPartly sunny.12 mph94%29.50 "HgN/A
8:50 am54 °FMore clouds than sun.12 mph88%29.50 "HgN/A
8:20 am52 °FPartly sunny.10 mph94%29.50 "HgN/A
7:50 am52 °FPassing clouds.12 mph94%29.50 "HgN/A
7:20 am52 °FPassing clouds.10 mph94%29.53 "HgN/A
6:50 am52 °FPassing clouds.13 mph94%29.53 "HgN/A
6:20 am52 °FMostly cloudy.10 mph94%29.53 "HgN/A
5:50 am52 °FLight rain. Mostly cloudy.12 mph94%29.53 "HgN/A
5:20 am52 °FOvercast.10 mph94%29.56 "HgN/A
4:50 am52 °FLight rain. Partly cloudy.13 mph94%29.56 "HgN/A
4:20 am52 °FLight rain. Mostly cloudy.12 mph94%29.59 "HgN/A
3:50 am52 °FOvercast.9 mph94%29.59 "HgN/A
3:20 am52 °FOvercast.12 mph94%29.59 "HgN/A
2:50 am52 °FPassing clouds.13 mph94%29.59 "HgN/A
2:20 am52 °FOvercast.9 mph94%29.59 "HgN/A
1:50 am54 °FMostly cloudy.15 mph88%29.62 "HgN/A
1:20 am54 °FMostly cloudy.18 mph88%29.62 "HgN/A
12:50 am54 °FPassing clouds.20 mph82%29.62 "HgN/A
12:20 am54 °FMostly cloudy.18 mph82%29.65 "HgN/A
11:50 pm
Thu, Dec 5
54 °FOvercast.20 mph82%29.65 "HgN/A
11:20 pm54 °FOvercast.14 mph82%29.68 "HgN/A
10:50 pm54 °FOvercast.17 mph82%29.68 "HgN/A
10:20 pm54 °FMostly cloudy.20 mph82%29.68 "HgN/A
9:20 pm54 °FLight rain. Mostly cloudy.15 mph82%29.68 "HgN/A
8:50 pm54 °FLight rain. Passing clouds.12 mph77%29.68 "HgN/A
8:20 pm54 °FPassing clouds.14 mph77%29.68 "HgN/A
7:50 pm52 °FPassing clouds.12 mph82%29.68 "HgN/A
7:20 pm50 °FPassing clouds.10 mph88%29.71 "HgN/A
6:50 pm50 °FPassing clouds.12 mph88%29.71 "HgN/A
6:20 pm50 °FPassing clouds.15 mph88%29.71 "HgN/A
5:50 pm50 °FPassing clouds.15 mph82%29.74 "HgN/A
5:20 pm50 °FPassing clouds.13 mph82%29.74 "HgN/A
4:50 pm48 °FPassing clouds.13 mph87%29.74 "HgN/A
4:20 pm50 °FPassing clouds.13 mph76%29.77 "HgN/A
3:50 pm48 °FLight rain. Partly sunny.10 mph82%29.77 "HgN/A
3:20 pm48 °FScattered showers. Partly sunny.12 mph82%29.80 "HgN/A
2:50 pm48 °FLight rain. Mostly cloudy.12 mph82%29.80 "HgN/A
2:20 pm48 °FLight rain. Mostly cloudy.12 mph82%29.83 "HgN/A
1:50 pm46 °FLight rain. Broken clouds.10 mph87%29.86 "HgN/A
1:20 pm48 °FOvercast.10 mph82%29.89 "HgN/A
12:50 pm46 °FMostly cloudy.8 mph87%29.89 "HgN/A
12:20 pm46 °FPartly sunny.9 mph82%29.92 "HgN/A
11:50 am45 °FPartly sunny.9 mph87%29.95 "HgN/A
11:20 am45 °FMostly cloudy.8 mph87%29.98 "HgN/A
10:50 am45 °FMostly cloudy.7 mph87%29.98 "HgN/A
10:20 am43 °FPartly sunny.6 mph87%30.01 "HgN/A
Weather by CustomWeather, © 2019

See weather overview

Advertising